Year,Month,Day,Hour,Minute,Value (Times are PST for temperature in C)
2016,09,26,00,00,14.20
2016,09,26,00,01,14.20
2016,09,26,00,02,14.20
2016,09,26,00,03,14.20
2016,09,26,00,04,14.20
2016,09,26,00,05,14.30
2016,09,26,00,06,14.30
2016,09,26,00,07,14.30
2016,09,26,00,08,14.30
2016,09,26,00,09,14.30
2016,09,26,00,10,14.30
2016,09,26,00,11,14.30
2016,09,26,00,12,14.30
2016,09,26,00,13,14.30
2016,09,26,00,14,14.30
2016,09,26,00,15,14.30
2016,09,26,00,16,14.30
2016,09,26,00,17,14.20
2016,09,26,00,18,14.20
2016,09,26,00,19,14.20
2016,09,26,00,20,14.20
2016,09,26,00,21,14.20
2016,09,26,00,22,14.20
2016,09,26,00,23,14.20
2016,09,26,00,24,14.20
2016,09,26,00,25,14.20
2016,09,26,00,26,14.20
2016,09,26,00,27,14.20
2016,09,26,00,28,14.20
2016,09,26,00,29,14.20
2016,09,26,00,30,14.20
2016,09,26,00,31,14.20
2016,09,26,00,32,14.20
2016,09,26,00,33,14.20
2016,09,26,00,34,14.20
2016,09,26,00,35,14.20
2016,09,26,00,36,14.20
2016,09,26,00,37,14.20
2016,09,26,00,38,14.20
2016,09,26,00,39,14.20
2016,09,26,00,40,14.20
2016,09,26,00,41,14.10
2016,09,26,00,42,14.10
2016,09,26,00,43,14.10
2016,09,26,00,44,14.10
2016,09,26,00,45,14.10
2016,09,26,00,46,14.00
2016,09,26,00,47,14.00
2016,09,26,00,48,14.00
2016,09,26,00,49,13.90
2016,09,26,00,50,13.90
2016,09,26,00,51,13.90
2016,09,26,00,52,13.90
2016,09,26,00,53,13.80
2016,09,26,00,54,13.80
2016,09,26,00,55,13.80
2016,09,26,00,56,13.80
2016,09,26,00,57,13.70
2016,09,26,00,58,13.70
2016,09,26,00,59,13.70
2016,09,26,01,00,13.70
2016,09,26,01,01,13.60
2016,09,26,01,02,13.60
2016,09,26,01,03,13.60
2016,09,26,01,04,13.60
2016,09,26,01,05,13.60
2016,09,26,01,06,13.50
2016,09,26,01,07,13.50
2016,09,26,01,08,13.50
2016,09,26,01,09,13.40
2016,09,26,01,10,13.40
2016,09,26,01,11,13.40
2016,09,26,01,12,13.40
2016,09,26,01,13,13.40
2016,09,26,01,14,13.30
2016,09,26,01,15,13.30
2016,09,26,01,16,13.30
2016,09,26,01,17,13.30
2016,09,26,01,18,13.20
2016,09,26,01,19,13.20
2016,09,26,01,20,13.20
2016,09,26,01,21,13.10
2016,09,26,01,22,13.10
2016,09,26,01,23,13.10
2016,09,26,01,24,13.10
2016,09,26,01,25,13.10
2016,09,26,01,26,13.10
2016,09,26,01,27,13.10
2016,09,26,01,28,13.10
2016,09,26,01,29,13.10
2016,09,26,01,30,13.10
2016,09,26,01,31,13.20
2016,09,26,01,32,13.20
2016,09,26,01,33,13.20
2016,09,26,01,34,13.20
2016,09,26,01,35,13.20
2016,09,26,01,36,13.30
2016,09,26,01,37,13.30
2016,09,26,01,38,13.30
2016,09,26,01,39,13.30
2016,09,26,01,40,13.30
2016,09,26,01,41,13.30
2016,09,26,01,42,13.30
2016,09,26,01,43,13.30
2016,09,26,01,44,13.30
2016,09,26,01,45,13.40
2016,09,26,01,46,13.40
2016,09,26,01,47,13.40
2016,09,26,01,48,13.40
2016,09,26,01,49,13.40
2016,09,26,01,50,13.40
2016,09,26,01,51,13.40
2016,09,26,01,52,13.40
2016,09,26,01,53,13.40
2016,09,26,01,54,13.50
2016,09,26,01,55,13.50
2016,09,26,01,56,13.60
2016,09,26,01,57,13.60
2016,09,26,01,58,13.60
2016,09,26,01,59,13.60
2016,09,26,02,00,13.60
2016,09,26,02,01,13.60
2016,09,26,02,02,13.60
2016,09,26,02,03,13.60
2016,09,26,02,04,13.60
2016,09,26,02,05,13.60
2016,09,26,02,06,13.60
2016,09,26,02,07,13.60
2016,09,26,02,08,13.60
2016,09,26,02,09,13.60
2016,09,26,02,10,13.60
2016,09,26,02,11,13.60
2016,09,26,02,12,13.60
2016,09,26,02,13,13.60
2016,09,26,02,14,13.60
2016,09,26,02,15,13.50
2016,09,26,02,16,13.50
2016,09,26,02,17,13.50
2016,09,26,02,18,13.50
2016,09,26,02,19,13.50
2016,09,26,02,20,13.50
2016,09,26,02,21,13.50
2016,09,26,02,22,13.50
2016,09,26,02,23,13.50
2016,09,26,02,24,13.50
2016,09,26,02,25,13.50
2016,09,26,02,26,13.50
2016,09,26,02,27,13.50
2016,09,26,02,28,13.50
2016,09,26,02,29,13.50
2016,09,26,02,30,13.50
2016,09,26,02,31,13.50
2016,09,26,02,32,13.50
2016,09,26,02,33,13.50
2016,09,26,02,34,13.50
2016,09,26,02,35,13.50
2016,09,26,02,36,13.50
2016,09,26,02,37,13.50
2016,09,26,02,38,13.50
2016,09,26,02,39,13.60
2016,09,26,02,40,13.60
2016,09,26,02,41,13.60
2016,09,26,02,42,13.60
2016,09,26,02,43,13.60
2016,09,26,02,44,13.60
2016,09,26,02,45,13.60
2016,09,26,02,46,13.60
2016,09,26,02,47,13.60
2016,09,26,02,48,13.60
2016,09,26,02,49,13.60
2016,09,26,02,50,13.60
2016,09,26,02,51,13.60
2016,09,26,02,52,13.60
2016,09,26,02,53,13.60
2016,09,26,02,54,13.60
2016,09,26,02,55,13.60
2016,09,26,02,56,13.60
2016,09,26,02,57,13.60
2016,09,26,02,58,13.60
2016,09,26,02,59,13.60
2016,09,26,03,00,13.60
2016,09,26,03,01,13.60
2016,09,26,03,02,13.60
2016,09,26,03,03,13.60
2016,09,26,03,04,13.60
2016,09,26,03,05,13.60
2016,09,26,03,06,13.60
2016,09,26,03,07,13.60
2016,09,26,03,08,13.60
2016,09,26,03,09,13.60
2016,09,26,03,10,13.60
2016,09,26,03,11,13.60
2016,09,26,03,12,13.60
2016,09,26,03,13,13.60
2016,09,26,03,14,13.60
2016,09,26,03,15,13.60
2016,09,26,03,16,13.60
2016,09,26,03,17,13.60
2016,09,26,03,18,13.60
2016,09,26,03,19,13.60
2016,09,26,03,20,13.50
2016,09,26,03,21,13.50
2016,09,26,03,22,13.50
2016,09,26,03,23,13.50
2016,09,26,03,24,13.50
2016,09,26,03,25,13.50
2016,09,26,03,26,13.50
2016,09,26,03,27,13.50
2016,09,26,03,28,13.40
2016,09,26,03,29,13.40
2016,09,26,03,30,13.40
2016,09,26,03,31,13.40
2016,09,26,03,32,13.40
2016,09,26,03,33,13.40
2016,09,26,03,34,13.40
2016,09,26,03,35,13.40
2016,09,26,03,36,13.40
2016,09,26,03,37,13.40
2016,09,26,03,38,13.40
2016,09,26,03,39,13.40
2016,09,26,03,40,13.40
2016,09,26,03,41,13.40
2016,09,26,03,42,13.40
2016,09,26,03,43,13.40
2016,09,26,03,44,13.40
2016,09,26,03,45,13.40
2016,09,26,03,46,13.40
2016,09,26,03,47,13.40
2016,09,26,03,48,13.40
2016,09,26,03,49,13.30
2016,09,26,03,50,13.30
2016,09,26,03,51,13.20
2016,09,26,03,52,13.20
2016,09,26,03,53,13.10
2016,09,26,03,54,13.00
2016,09,26,03,55,13.00
2016,09,26,03,56,12.90
2016,09,26,03,57,12.90
2016,09,26,03,58,12.80
2016,09,26,03,59,12.80
2016,09,26,04,00,12.70
2016,09,26,04,01,12.70
2016,09,26,04,02,12.60
2016,09,26,04,03,12.60
2016,09,26,04,04,12.50
2016,09,26,04,05,12.50
2016,09,26,04,06,12.40
2016,09,26,04,07,12.40
2016,09,26,04,08,12.30
2016,09,26,04,09,12.30
2016,09,26,04,10,12.30
2016,09,26,04,11,12.30
2016,09,26,04,12,12.20
2016,09,26,04,13,12.20
2016,09,26,04,14,12.20
2016,09,26,04,15,12.20
2016,09,26,04,16,12.10
2016,09,26,04,17,12.10
2016,09,26,04,18,12.10
2016,09,26,04,19,12.10
2016,09,26,04,20,12.10
2016,09,26,04,21,12.00
2016,09,26,04,22,12.00
2016,09,26,04,23,12.00
2016,09,26,04,24,12.00
2016,09,26,04,25,12.00
2016,09,26,04,26,11.90
2016,09,26,04,27,11.90
2016,09,26,04,28,11.90
2016,09,26,04,29,11.90
2016,09,26,04,30,11.80
2016,09,26,04,31,11.80
2016,09,26,04,32,11.80
2016,09,26,04,33,11.70
2016,09,26,04,34,11.70
2016,09,26,04,35,11.70
2016,09,26,04,36,11.70
2016,09,26,04,37,11.60
2016,09,26,04,38,11.60
2016,09,26,04,39,11.60
2016,09,26,04,40,11.60
2016,09,26,04,41,11.60
2016,09,26,04,42,11.50
2016,09,26,04,43,11.50
2016,09,26,04,44,11.50
2016,09,26,04,45,11.50
2016,09,26,04,46,11.40
2016,09,26,04,47,11.40
2016,09,26,04,48,11.40
2016,09,26,04,49,11.40
2016,09,26,04,50,11.30
2016,09,26,04,51,11.30
2016,09,26,04,52,11.30
2016,09,26,04,53,11.30
2016,09,26,04,54,11.30
2016,09,26,04,55,11.20
2016,09,26,04,56,11.20
2016,09,26,04,57,11.20
2016,09,26,04,58,11.20
2016,09,26,04,59,11.20
2016,09,26,05,00,11.20
2016,09,26,05,01,11.30
2016,09,26,05,02,11.30
2016,09,26,05,03,11.40
2016,09,26,05,04,11.50
2016,09,26,05,05,11.50
2016,09,26,05,06,11.60
2016,09,26,05,07,11.60
2016,09,26,05,08,11.70
2016,09,26,05,09,11.70
2016,09,26,05,10,11.70
2016,09,26,05,11,11.80
2016,09,26,05,12,11.80
2016,09,26,05,13,11.80
2016,09,26,05,14,11.90
2016,09,26,05,15,11.90
2016,09,26,05,16,11.90
2016,09,26,05,17,11.90
2016,09,26,05,18,12.00
2016,09,26,05,19,12.00
2016,09,26,05,20,12.00
2016,09,26,05,21,12.10
2016,09,26,05,22,12.10
2016,09,26,05,23,12.10
2016,09,26,05,24,12.10
2016,09,26,05,25,12.10
2016,09,26,05,26,12.10
2016,09,26,05,27,12.00
2016,09,26,05,28,12.00
2016,09,26,05,29,12.00
2016,09,26,05,30,12.00
2016,09,26,05,31,12.00
2016,09,26,05,32,12.00
2016,09,26,05,33,12.00
2016,09,26,05,34,11.90
2016,09,26,05,35,11.90
2016,09,26,05,36,11.90
2016,09,26,05,37,11.80
2016,09,26,05,38,11.80
2016,09,26,05,39,11.70
2016,09,26,05,40,11.70
2016,09,26,05,41,11.70
2016,09,26,05,42,11.60
2016,09,26,05,43,11.60
2016,09,26,05,44,11.60
2016,09,26,05,45,11.50
2016,09,26,05,46,11.50
2016,09,26,05,47,11.50
2016,09,26,05,48,11.40
2016,09,26,05,49,11.40
2016,09,26,05,50,11.40
2016,09,26,05,51,11.40
2016,09,26,05,52,11.30
2016,09,26,05,53,11.30
2016,09,26,05,54,11.30
2016,09,26,05,55,11.30
2016,09,26,05,56,11.30
2016,09,26,05,57,11.20
2016,09,26,05,58,11.20
2016,09,26,05,59,11.20
2016,09,26,06,00,11.20
2016,09,26,06,01,11.20
2016,09,26,06,02,11.20
2016,09,26,06,03,11.10
2016,09,26,06,04,11.10
2016,09,26,06,05,11.10
2016,09,26,06,06,11.10
2016,09,26,06,07,11.10
2016,09,26,06,08,11.00
2016,09,26,06,09,11.00
2016,09,26,06,10,11.00
2016,09,26,06,11,11.00
2016,09,26,06,12,10.90
2016,09,26,06,13,10.90
2016,09,26,06,14,10.90
2016,09,26,06,15,10.90
2016,09,26,06,16,10.90
2016,09,26,06,17,10.90
2016,09,26,06,18,10.90
2016,09,26,06,19,10.90
2016,09,26,06,20,10.90
2016,09,26,06,21,10.90
2016,09,26,06,22,10.90
2016,09,26,06,23,10.90
2016,09,26,06,24,10.90
2016,09,26,06,25,10.90
2016,09,26,06,26,10.90
2016,09,26,06,27,10.90
2016,09,26,06,28,10.90
2016,09,26,06,29,10.80
2016,09,26,06,30,10.80
2016,09,26,06,31,10.80
2016,09,26,06,32,10.80
2016,09,26,06,33,10.80
2016,09,26,06,34,10.80
2016,09,26,06,35,10.80
2016,09,26,06,36,10.70
2016,09,26,06,37,10.70
2016,09,26,06,38,10.70
2016,09,26,06,39,10.70
2016,09,26,06,40,10.70
2016,09,26,06,41,10.60
2016,09,26,06,42,10.60
2016,09,26,06,43,10.60
2016,09,26,06,44,10.60
2016,09,26,06,45,10.60
2016,09,26,06,46,10.60
2016,09,26,06,47,10.60
2016,09,26,06,48,10.60
2016,09,26,06,49,10.60
2016,09,26,06,50,10.60
2016,09,26,06,51,10.60
2016,09,26,06,52,10.60
2016,09,26,06,53,10.60
2016,09,26,06,54,10.60
2016,09,26,06,55,10.60
2016,09,26,06,56,10.60
2016,09,26,06,57,10.60
2016,09,26,06,58,10.60
2016,09,26,06,59,10.60
2016,09,26,07,00,10.60
2016,09,26,07,01,10.60
2016,09,26,07,02,10.60
2016,09,26,07,03,10.50
2016,09,26,07,04,10.50
2016,09,26,07,05,10.50
2016,09,26,07,06,10.50
2016,09,26,07,07,10.50
2016,09,26,07,08,10.40
2016,09,26,07,09,10.40
2016,09,26,07,10,10.40
2016,09,26,07,11,10.40
2016,09,26,07,12,10.40
2016,09,26,07,13,10.40
2016,09,26,07,14,10.40
2016,09,26,07,15,10.40
2016,09,26,07,16,10.40
2016,09,26,07,17,10.40
2016,09,26,07,18,10.40
2016,09,26,07,19,10.40
2016,09,26,07,20,10.40
2016,09,26,07,21,10.40
2016,09,26,07,22,10.40
2016,09,26,07,23,10.40
2016,09,26,07,24,10.40
2016,09,26,07,25,10.40
2016,09,26,07,26,10.40
2016,09,26,07,27,10.40
2016,09,26,07,28,10.40
2016,09,26,07,29,10.40
2016,09,26,07,30,10.40
2016,09,26,07,31,10.40
2016,09,26,07,32,10.40
2016,09,26,07,33,10.40
2016,09,26,07,34,10.40
2016,09,26,07,35,10.40
2016,09,26,07,36,10.40
2016,09,26,07,37,10.40
2016,09,26,07,38,10.40
2016,09,26,07,39,10.40
2016,09,26,07,40,10.40
2016,09,26,07,41,10.40
2016,09,26,07,42,10.40
2016,09,26,07,43,10.40
2016,09,26,07,44,10.40
2016,09,26,07,45,10.40
2016,09,26,07,46,10.40
2016,09,26,07,47,10.40
2016,09,26,07,48,10.40
2016,09,26,07,49,10.40
2016,09,26,07,50,10.50
2016,09,26,07,51,10.50
2016,09,26,07,52,10.50
2016,09,26,07,53,10.50
2016,09,26,07,54,10.50
2016,09,26,07,55,10.50
2016,09,26,07,56,10.50
2016,09,26,07,57,10.50
2016,09,26,07,58,10.60
2016,09,26,07,59,10.60
2016,09,26,08,00,10.70
2016,09,26,08,01,10.70
2016,09,26,08,02,10.70
2016,09,26,08,03,10.70
2016,09,26,08,04,10.80
2016,09,26,08,05,10.80
2016,09,26,08,06,10.80
2016,09,26,08,07,10.80
2016,09,26,08,08,10.90
2016,09,26,08,09,10.90
2016,09,26,08,10,10.90
2016,09,26,08,11,10.90
2016,09,26,08,12,11.00
2016,09,26,08,13,11.00
2016,09,26,08,14,11.00
2016,09,26,08,15,11.00
2016,09,26,08,16,11.00
2016,09,26,08,17,11.00
2016,09,26,08,18,11.00
2016,09,26,08,19,11.00
2016,09,26,08,20,11.10
2016,09,26,08,21,11.10
2016,09,26,08,22,11.10
2016,09,26,08,23,11.10
2016,09,26,08,24,11.10
2016,09,26,08,25,11.10
2016,09,26,08,26,11.10
2016,09,26,08,27,11.10
2016,09,26,08,28,11.10
2016,09,26,08,29,11.10
2016,09,26,08,30,11.20
2016,09,26,08,31,11.20
2016,09,26,08,32,11.20
2016,09,26,08,33,11.20
2016,09,26,08,34,11.30
2016,09,26,08,35,11.30
2016,09,26,08,36,11.30
2016,09,26,08,37,11.30
2016,09,26,08,38,11.40
2016,09,26,08,39,11.40
2016,09,26,08,40,11.40
2016,09,26,08,41,11.40
2016,09,26,08,42,11.50
2016,09,26,08,43,11.50
2016,09,26,08,44,11.60
2016,09,26,08,45,11.60
2016,09,26,08,46,11.70
2016,09,26,08,47,11.80
2016,09,26,08,48,11.90
2016,09,26,08,49,11.90
2016,09,26,08,50,12.00
2016,09,26,08,51,12.00
2016,09,26,08,52,12.10
2016,09,26,08,53,12.10
2016,09,26,08,54,12.20
2016,09,26,08,55,12.20
2016,09,26,08,56,12.30
2016,09,26,08,57,12.30
2016,09,26,08,58,12.40
2016,09,26,08,59,12.40
2016,09,26,09,00,12.40
2016,09,26,09,01,12.50
2016,09,26,09,02,12.50
2016,09,26,09,03,12.50
2016,09,26,09,04,12.60
2016,09,26,09,05,12.60
2016,09,26,09,06,12.60
2016,09,26,09,07,12.60
2016,09,26,09,08,12.70
2016,09,26,09,09,12.70
2016,09,26,09,10,12.70
2016,09,26,09,11,12.80
2016,09,26,09,12,12.80
2016,09,26,09,13,12.90
2016,09,26,09,14,12.90
2016,09,26,09,15,13.00
2016,09,26,09,16,13.00
2016,09,26,09,17,13.10
2016,09,26,09,18,13.20
2016,09,26,09,19,13.20
2016,09,26,09,20,13.30
2016,09,26,09,21,13.40
2016,09,26,09,22,13.50
2016,09,26,09,23,13.60
2016,09,26,09,24,13.70
2016,09,26,09,25,13.80
2016,09,26,09,26,13.90
2016,09,26,09,27,14.00
2016,09,26,09,28,14.10
2016,09,26,09,29,14.20
2016,09,26,09,30,14.30
2016,09,26,09,31,14.40
2016,09,26,09,32,14.50
2016,09,26,09,33,14.60
2016,09,26,09,34,14.70
2016,09,26,09,35,14.80
2016,09,26,09,36,14.80
2016,09,26,09,37,14.90
2016,09,26,09,38,15.00
2016,09,26,09,39,15.10
2016,09,26,09,40,15.10
2016,09,26,09,41,15.20
2016,09,26,09,42,15.30
2016,09,26,09,43,15.40
2016,09,26,09,44,15.50
2016,09,26,09,45,15.60
2016,09,26,09,46,15.70
2016,09,26,09,47,15.80
2016,09,26,09,48,15.80
2016,09,26,09,49,15.90
2016,09,26,09,50,16.00
2016,09,26,09,51,16.10
2016,09,26,09,52,16.10
2016,09,26,09,53,16.20
2016,09,26,09,54,16.20
2016,09,26,09,55,16.30
2016,09,26,09,56,16.30
2016,09,26,09,57,16.40
2016,09,26,09,58,16.40
2016,09,26,09,59,16.50
2016,09,26,10,00,16.50
2016,09,26,10,01,16.60
2016,09,26,10,02,16.60
2016,09,26,10,03,16.70
2016,09,26,10,04,16.70
2016,09,26,10,05,16.80
2016,09,26,10,06,16.80
2016,09,26,10,07,16.80
2016,09,26,10,08,16.90
2016,09,26,10,09,16.90
2016,09,26,10,10,17.00
2016,09,26,10,11,17.00
2016,09,26,10,12,17.10
2016,09,26,10,13,17.10
2016,09,26,10,14,17.20
2016,09,26,10,15,17.20
2016,09,26,10,16,17.20
2016,09,26,10,17,17.30
2016,09,26,10,18,17.30
2016,09,26,10,19,17.30
2016,09,26,10,20,17.30
2016,09,26,10,21,17.30
2016,09,26,10,22,17.30
2016,09,26,10,23,17.30
2016,09,26,10,24,17.20
2016,09,26,10,25,17.20
2016,09,26,10,26,17.30
2016,09,26,10,27,17.30
2016,09,26,10,28,17.30
2016,09,26,10,29,17.30
2016,09,26,10,30,17.30
2016,09,26,10,31,17.40
2016,09,26,10,32,17.40
2016,09,26,10,33,17.50
2016,09,26,10,34,17.50
2016,09,26,10,35,17.60
2016,09,26,10,36,17.60
2016,09,26,10,37,17.70
2016,09,26,10,38,17.70
2016,09,26,10,39,17.70
2016,09,26,10,40,17.80
2016,09,26,10,41,17.80
2016,09,26,10,42,17.80
2016,09,26,10,43,17.80
2016,09,26,10,44,17.80
2016,09,26,10,45,17.80
2016,09,26,10,46,17.80
2016,09,26,10,47,17.90
2016,09,26,10,48,17.90
2016,09,26,10,49,17.90
2016,09,26,10,50,17.90
2016,09,26,10,51,17.90
2016,09,26,10,52,18.00
2016,09,26,10,53,18.00
2016,09,26,10,54,18.10
2016,09,26,10,55,18.20
2016,09,26,10,56,18.20
2016,09,26,10,57,18.20
2016,09,26,10,58,18.20
2016,09,26,10,59,18.10
2016,09,26,11,00,18.10
2016,09,26,11,01,18.10
2016,09,26,11,02,18.20
2016,09,26,11,03,18.20
2016,09,26,11,04,18.20
2016,09,26,11,05,18.30
2016,09,26,11,06,18.30
2016,09,26,11,07,18.30
2016,09,26,11,08,18.30
2016,09,26,11,09,18.40
2016,09,26,11,10,18.40
2016,09,26,11,11,18.50
2016,09,26,11,12,18.60
2016,09,26,11,13,18.60
2016,09,26,11,14,18.70
2016,09,26,11,15,18.70
2016,09,26,11,16,18.80
2016,09,26,11,17,18.80
2016,09,26,11,18,18.80
2016,09,26,11,19,18.80
2016,09,26,11,20,18.80
2016,09,26,11,21,18.80
2016,09,26,11,22,18.90
2016,09,26,11,23,19.00
2016,09,26,11,24,19.00
2016,09,26,11,25,19.10
2016,09,26,11,26,19.10
2016,09,26,11,27,19.20
2016,09,26,11,28,19.20
2016,09,26,11,29,19.30
2016,09,26,11,30,19.30
2016,09,26,11,31,19.30
2016,09,26,11,32,19.30
2016,09,26,11,33,19.40
2016,09,26,11,34,19.50
2016,09,26,11,35,19.50
2016,09,26,11,36,19.60
2016,09,26,11,37,19.60
2016,09,26,11,38,19.60
2016,09,26,11,39,19.60
2016,09,26,11,40,19.60
2016,09,26,11,41,19.60
2016,09,26,11,42,19.60
2016,09,26,11,43,19.60
2016,09,26,11,44,19.60
2016,09,26,11,45,19.60
2016,09,26,11,46,19.50
2016,09,26,11,47,19.50
2016,09,26,11,48,19.60
2016,09,26,11,49,19.60
2016,09,26,11,50,19.60
2016,09,26,11,51,19.60
2016,09,26,11,52,19.60
2016,09,26,11,53,19.60
2016,09,26,11,54,19.60
2016,09,26,11,55,19.60
2016,09,26,11,56,19.60
2016,09,26,11,57,19.60
2016,09,26,11,58,19.60
2016,09,26,11,59,19.70
2016,09,26,12,00,19.70
2016,09,26,12,01,19.60
2016,09,26,12,02,19.60
2016,09,26,12,03,19.60
2016,09,26,12,04,19.60
2016,09,26,12,05,19.60
2016,09,26,12,06,19.60
2016,09,26,12,07,19.60
2016,09,26,12,08,19.60
2016,09,26,12,09,19.60
2016,09,26,12,10,19.60
2016,09,26,12,11,19.60
2016,09,26,12,12,19.60
2016,09,26,12,13,19.70
2016,09,26,12,14,19.80
2016,09,26,12,15,19.90
2016,09,26,12,16,19.90
2016,09,26,12,17,20.00
2016,09,26,12,18,20.10
2016,09,26,12,19,20.10
2016,09,26,12,20,20.20
2016,09,26,12,21,20.20
2016,09,26,12,22,20.30
2016,09,26,12,23,20.30
2016,09,26,12,24,20.40
2016,09,26,12,25,20.40
2016,09,26,12,26,20.50
2016,09,26,12,27,20.60
2016,09,26,12,28,20.60
2016,09,26,12,29,20.70
2016,09,26,12,30,20.70
2016,09,26,12,31,20.80
2016,09,26,12,32,20.90
2016,09,26,12,33,21.00
2016,09,26,12,34,21.00
2016,09,26,12,35,21.00
2016,09,26,12,36,21.00
2016,09,26,12,37,21.00
2016,09,26,12,38,20.90
2016,09,26,12,39,20.90
2016,09,26,12,40,20.80
2016,09,26,12,41,20.70
2016,09,26,12,42,20.70
2016,09,26,12,43,20.60
2016,09,26,12,44,20.70
2016,09,26,12,45,20.70
2016,09,26,12,46,20.70
2016,09,26,12,47,20.70
2016,09,26,12,48,20.80
2016,09,26,12,49,20.70
2016,09,26,12,50,20.80
2016,09,26,12,51,20.80
2016,09,26,12,52,20.90
2016,09,26,12,53,21.00
2016,09,26,12,54,21.10
2016,09,26,12,55,21.20
2016,09,26,12,56,21.20
2016,09,26,12,57,21.30
2016,09,26,12,58,21.40
2016,09,26,12,59,21.50
2016,09,26,13,00,21.60
2016,09,26,13,01,21.70
2016,09,26,13,02,21.80
2016,09,26,13,03,21.90
2016,09,26,13,04,22.00
2016,09,26,13,05,22.00
2016,09,26,13,06,22.10
2016,09,26,13,07,22.10
2016,09,26,13,08,22.10
2016,09,26,13,09,22.00
2016,09,26,13,10,21.90
2016,09,26,13,11,21.90
2016,09,26,13,12,21.80
2016,09,26,13,13,21.80
2016,09,26,13,14,21.80
2016,09,26,13,15,21.80
2016,09,26,13,16,21.80
2016,09,26,13,17,21.80
2016,09,26,13,18,21.80
2016,09,26,13,19,21.70
2016,09,26,13,20,21.70
2016,09,26,13,21,21.70
2016,09,26,13,22,21.60
2016,09,26,13,23,21.50
2016,09,26,13,24,21.50
2016,09,26,13,25,21.40
2016,09,26,13,26,21.30
2016,09,26,13,27,21.20
2016,09,26,13,28,21.10
2016,09,26,13,29,21.00
2016,09,26,13,30,20.90
2016,09,26,13,31,20.70
2016,09,26,13,32,20.50
2016,09,26,13,33,20.30
2016,09,26,13,34,20.10
2016,09,26,13,35,19.90
2016,09,26,13,36,19.80
2016,09,26,13,37,19.70
2016,09,26,13,38,19.70
2016,09,26,13,39,19.60
2016,09,26,13,40,19.60
2016,09,26,13,41,19.60
2016,09,26,13,42,19.60
2016,09,26,13,43,19.60
2016,09,26,13,44,19.60
2016,09,26,13,45,19.60
2016,09,26,13,46,19.50
2016,09,26,13,47,19.50
2016,09,26,13,48,19.40
2016,09,26,13,49,19.30
2016,09,26,13,50,19.20
2016,09,26,13,51,19.10
2016,09,26,13,52,19.10
2016,09,26,13,53,19.00
2016,09,26,13,54,19.00
2016,09,26,13,55,19.00
2016,09,26,13,56,19.10
2016,09,26,13,57,19.10
2016,09,26,13,58,19.10
2016,09,26,13,59,19.10
2016,09,26,14,00,19.10
2016,09,26,14,01,19.10
2016,09,26,14,02,19.10
2016,09,26,14,03,19.10
2016,09,26,14,04,19.00
2016,09,26,14,05,19.00
2016,09,26,14,06,18.90
2016,09,26,14,07,18.90
2016,09,26,14,08,18.90
2016,09,26,14,09,18.90
2016,09,26,14,10,19.00
2016,09,26,14,11,19.00
2016,09,26,14,12,19.00
2016,09,26,14,13,19.10
2016,09,26,14,14,19.10
2016,09,26,14,15,19.10
2016,09,26,14,16,19.10
2016,09,26,14,17,19.10
2016,09,26,14,18,19.10
2016,09,26,14,19,19.10
2016,09,26,14,20,19.10
2016,09,26,14,21,19.00
2016,09,26,14,22,19.00
2016,09,26,14,23,19.00
2016,09,26,14,24,19.00
2016,09,26,14,25,19.00
2016,09,26,14,26,19.00
2016,09,26,14,27,18.90
2016,09,26,14,28,18.90
2016,09,26,14,29,18.90
2016,09,26,14,30,18.90
2016,09,26,14,31,18.90
2016,09,26,14,32,19.00
2016,09,26,14,33,19.00
2016,09,26,14,34,19.00
2016,09,26,14,35,19.00
2016,09,26,14,36,18.90
2016,09,26,14,37,18.90
2016,09,26,14,38,18.90
2016,09,26,14,39,18.90
2016,09,26,14,40,18.90
2016,09,26,14,41,18.90
2016,09,26,14,42,18.90
2016,09,26,14,43,18.90
2016,09,26,14,44,18.90
2016,09,26,14,45,18.90
2016,09,26,14,46,18.90
2016,09,26,14,47,18.90
2016,09,26,14,48,18.90
2016,09,26,14,49,18.90
2016,09,26,14,50,18.90
2016,09,26,14,51,18.90
2016,09,26,14,52,18.90
2016,09,26,14,53,18.90
2016,09,26,14,54,18.90
2016,09,26,14,55,19.00
2016,09,26,14,56,19.00
2016,09,26,14,57,19.00
2016,09,26,14,58,19.00
2016,09,26,14,59,19.00
2016,09,26,15,00,18.90
2016,09,26,15,01,18.90
2016,09,26,15,02,18.90
2016,09,26,15,03,18.90
2016,09,26,15,04,18.90
2016,09,26,15,05,18.90
2016,09,26,15,06,18.90
2016,09,26,15,07,18.90
2016,09,26,15,08,18.90
2016,09,26,15,09,18.90
2016,09,26,15,10,18.90
2016,09,26,15,11,18.90
2016,09,26,15,12,19.00
2016,09,26,15,13,19.00
2016,09,26,15,14,19.10
2016,09,26,15,15,19.10
2016,09,26,15,16,19.10
2016,09,26,15,17,19.10
2016,09,26,15,18,19.10
2016,09,26,15,19,19.10
2016,09,26,15,20,19.10
2016,09,26,15,21,19.10
2016,09,26,15,22,19.10
2016,09,26,15,23,19.10
2016,09,26,15,24,19.00
2016,09,26,15,25,18.90
2016,09,26,15,26,18.90
2016,09,26,15,27,18.80
2016,09,26,15,28,18.80
2016,09,26,15,29,18.70
2016,09,26,15,30,18.60
2016,09,26,15,31,18.60
2016,09,26,15,32,18.50
2016,09,26,15,33,18.50
2016,09,26,15,34,18.40
2016,09,26,15,35,18.30
2016,09,26,15,36,18.30
2016,09,26,15,37,18.20
2016,09,26,15,38,18.20
2016,09,26,15,39,18.10
2016,09,26,15,40,18.10
2016,09,26,15,41,18.10
2016,09,26,15,42,18.00
2016,09,26,15,43,17.90
2016,09,26,15,44,17.80
2016,09,26,15,45,17.80
2016,09,26,15,46,17.80
2016,09,26,15,47,17.70
2016,09,26,15,48,17.70
2016,09,26,15,49,17.60
2016,09,26,15,50,17.60
2016,09,26,15,51,17.60
2016,09,26,15,52,17.60
2016,09,26,15,53,17.60
2016,09,26,15,54,17.60
2016,09,26,15,55,17.60
2016,09,26,15,56,17.60
2016,09,26,15,57,17.70
2016,09,26,15,58,17.70
2016,09,26,15,59,17.70
2016,09,26,16,00,17.80
2016,09,26,16,01,17.80
2016,09,26,16,02,17.90
2016,09,26,16,03,17.90
2016,09,26,16,04,18.00
2016,09,26,16,05,18.00
2016,09,26,16,06,18.00
2016,09,26,16,07,18.10
2016,09,26,16,08,18.10
2016,09,26,16,09,18.10
2016,09,26,16,10,18.10
2016,09,26,16,11,18.10
2016,09,26,16,12,18.10
2016,09,26,16,13,18.20
2016,09,26,16,14,18.20
2016,09,26,16,15,18.20
2016,09,26,16,16,18.20
2016,09,26,16,17,18.20
2016,09,26,16,18,18.30
2016,09,26,16,19,18.30
2016,09,26,16,20,18.30
2016,09,26,16,21,18.40
2016,09,26,16,22,18.40
2016,09,26,16,23,18.50
2016,09,26,16,24,18.50
2016,09,26,16,25,18.50
2016,09,26,16,26,18.50
2016,09,26,16,27,18.50
2016,09,26,16,28,18.50
2016,09,26,16,29,18.50
2016,09,26,16,30,18.50
2016,09,26,16,31,18.50
2016,09,26,16,32,18.50
2016,09,26,16,33,18.60
2016,09,26,16,34,18.60
2016,09,26,16,35,18.60
2016,09,26,16,36,18.60
2016,09,26,16,37,18.60
2016,09,26,16,38,18.60
2016,09,26,16,39,18.60
2016,09,26,16,40,18.60
2016,09,26,16,41,18.60
2016,09,26,16,42,18.60
2016,09,26,16,43,18.60
2016,09,26,16,44,18.60
2016,09,26,16,45,18.60
2016,09,26,16,46,18.60
2016,09,26,16,47,18.60
2016,09,26,16,48,18.60
2016,09,26,16,49,18.60
2016,09,26,16,50,18.60
2016,09,26,16,51,18.60
2016,09,26,16,52,18.60
2016,09,26,16,53,18.50
2016,09,26,16,54,18.50
2016,09,26,16,55,18.60
2016,09,26,16,56,18.60
2016,09,26,16,57,18.60
2016,09,26,16,58,18.60
2016,09,26,16,59,18.60
2016,09,26,17,00,18.60
2016,09,26,17,01,18.60
2016,09,26,17,02,18.60
2016,09,26,17,03,18.70
2016,09,26,17,04,18.70
2016,09,26,17,05,18.70
2016,09,26,17,06,18.70
2016,09,26,17,07,18.70
2016,09,26,17,08,18.70
2016,09,26,17,09,18.70
2016,09,26,17,10,18.70
2016,09,26,17,11,18.70
2016,09,26,17,12,18.70
2016,09,26,17,13,18.70
2016,09,26,17,14,18.70
2016,09,26,17,15,18.70
2016,09,26,17,16,18.70
2016,09,26,17,17,18.70
2016,09,26,17,18,18.70
2016,09,26,17,19,18.70